Weather History for Cleveland, OH

Change the Weather History Date:

Wednesday, August 7, 2013

  Actual Average Record
Temperature  
Mean Temperature 73 °F 73 °F  
Max Temperature 80 °F 82 °F 94 °F (1918)
Min Temperature 66 °F 64 °F 48 °F (1997)
Degree Days  
Heating Degree Days 0 0  
Month to date heating degree days 0 0  
Since 1 June heating degree days 42 46  
Since 1 July heating degree days 3 4  
Cooling Degree Days 8 8  
Month to date cooling degree days 32 56  
Year to date cooling degree days 596 548  
Since 1 June cooling degree days 482 489  
Growing Degree Days 23 (Base 50)    
Moisture  
Dew Point 65 °F    
Average Humidity 71    
Maximum Humidity 79    
Minimum Humidity 62    
Precipitation  
Precipitation 0.23 in 0.12 in 3.33 in (2007)
Month to date precipitation 0.72 0.82  
Year to date precipitation 26.12 22.85  
Snow  
Snow 0.00 in 0.00 in - ()
Month to date snowfall 0.0 0.0  
Since 1 June snowfall 0.0 0.0  
Since 1 July snowfall 0.0 0.0  
Snow Depth 0.00 in    
Sea Level Pressure  
Sea Level Pressure 29.94 in    
Wind  
Wind Speed 9 mph (South)    
Max Wind Speed 17 mph    
Max Gust Speed 21 mph    
Visibility 10 miles    
Events Rain , Thunderstorm    
T = Trace of Precipitation, MM = Missing Value Source: NWS Daily Summary

Daily Weather History Graph

Daily Weather History Graph

Search for Another Location

Airport:

Trip Planner

Search our weather history database for the weather conditions in past years. The results will help you decide how hot, cold, wet, or windy it might be!

Date:

Astronomy

Aug. 07, 2013 Rise Set
Actual Time 6:28 AM EDT 8:37 PM EDT
Civil Twilight 5:58 AM EDT 9:07 PM EDT
Nautical Twilight 5:20 AM EDT 9:44 PM EDT
Astronomical Twilight 4:39 AM EDT 10:25 PM EDT
Moon 7:17 AM EDT (8/7) 8:41 PM EDT (8/7)
Length of Visible Light 15h 09m
Length of Day
14h 08m
New Moon, 1% of the Moon is Illuminated
Aug 7
New Moon
Aug 14
First Quarter
Aug 20
Full
Aug 28
Last Quarter
Sep 5
New

Hourly Weather History & Observations

Time (EDT) Temp. Heat Index Dew Point Humidity Pressure Visibility Wind Dir Wind Speed Gust Speed Precip Events Conditions
12:51 AM 66.9 °F - 59.0 °F 76% 29.96 in 10.0 mi South 6.9 mph - N/A   Partly Cloudy
1:51 AM 66.9 °F - 59.0 °F 76% 29.96 in 10.0 mi South 6.9 mph - N/A   Scattered Clouds
2:51 AM 66.0 °F - 59.0 °F 78% 29.96 in 10.0 mi SSE 8.1 mph - N/A   Mostly Cloudy
3:51 AM 66.0 °F - 59.0 °F 78% 29.96 in 10.0 mi South 6.9 mph - N/A   Mostly Cloudy
4:51 AM 68.0 °F - 59.0 °F 73% 29.94 in 10.0 mi SSE 9.2 mph - N/A   Mostly Cloudy
5:51 AM 68.0 °F - 60.1 °F 76% 29.93 in 10.0 mi South 8.1 mph - N/A   Mostly Cloudy
6:51 AM 69.1 °F - 60.1 °F 73% 29.92 in 10.0 mi South 8.1 mph - N/A   Mostly Cloudy
7:51 AM 70.0 °F - 61.0 °F 73% 29.93 in 10.0 mi South 6.9 mph - N/A   Mostly Cloudy
8:51 AM 73.0 °F - 63.0 °F 71% 29.94 in 10.0 mi South 9.2 mph - N/A   Overcast
9:51 AM 75.9 °F - 64.9 °F 69% 29.93 in 10.0 mi South 10.4 mph - N/A   Mostly Cloudy
10:03 AM 75.9 °F - 64.9 °F 69% 29.94 in 10.0 mi South 8.1 mph - N/A Thunderstorm Thunderstorm
10:38 AM 75.0 °F - 66.0 °F 73% 29.95 in 10.0 mi SSW 10.4 mph - 0.00 in Rain , Thunderstorm Light Thunderstorms and Rain
10:51 AM 75.9 °F - 66.9 °F 74% 29.94 in 10.0 mi SSW 6.9 mph - 0.00 in   Overcast
11:05 AM 78.1 °F - 66.9 °F 68% 29.94 in 10.0 mi SSW 9.2 mph - N/A   Overcast
11:51 AM 77.0 °F - 70.0 °F 79% 29.94 in 10.0 mi SSW 12.7 mph - 0.00 in Rain Light Rain
12:35 PM 77.0 °F - 69.1 °F 76% 29.96 in 10.0 mi SSW 11.5 mph - 0.00 in Rain , Thunderstorm Light Thunderstorms and Rain
12:51 PM 75.0 °F - 69.1 °F 82% 29.94 in 7.0 mi South 10.4 mph - 0.00 in Rain , Thunderstorm Light Thunderstorms and Rain
1:20 PM 73.9 °F - 69.1 °F 85% 29.95 in 10.0 mi SSW 8.1 mph - 0.04 in Rain , Thunderstorm Light Thunderstorms and Rain
1:40 PM 73.9 °F - 69.1 °F 85% 29.97 in 10.0 mi SSW 10.4 mph - 0.04 in Rain Light Rain
1:51 PM 72.0 °F - 66.0 °F 81% 29.96 in 10.0 mi SSW 10.4 mph - 0.04 in Rain Light Rain
1:57 PM 71.1 °F - 66.0 °F 84% 29.97 in 10.0 mi SW 8.1 mph - 0.00 in Rain , Thunderstorm Light Thunderstorms and Rain
2:21 PM 71.1 °F - 66.9 °F 87% 29.99 in 1.8 mi NW 6.9 mph - 0.06 in Rain , Thunderstorm Heavy Thunderstorms and Rain
2:32 PM 70.0 °F - 64.9 °F 84% 29.97 in 3.0 mi SE 6.9 mph - 0.15 in Rain , Thunderstorm Thunderstorms and Rain
2:51 PM 70.0 °F - 66.0 °F 87% 29.94 in 10.0 mi SSE 10.4 mph - 0.17 in Rain , Thunderstorm Light Thunderstorms and Rain
3:23 PM 70.0 °F - 66.0 °F 87% 29.92 in 10.0 mi SSE 10.4 mph - 0.02 in   Mostly Cloudy
3:51 PM 75.0 °F - 68.0 °F 79% 29.91 in 10.0 mi SSE 15.0 mph - 0.02 in   Mostly Cloudy
4:51 PM 78.1 °F - 66.0 °F 66% 29.89 in 10.0 mi SSW 10.4 mph - N/A   Mostly Cloudy
5:51 PM 80.1 °F 82.3 °F 66.9 °F 64% 29.89 in 10.0 mi SW 6.9 mph - N/A   Mostly Cloudy
6:51 PM 79.0 °F - 66.9 °F 66% 29.89 in 10.0 mi SSW 5.8 mph - N/A   Mostly Cloudy
7:51 PM 78.1 °F - 66.9 °F 68% 29.91 in 10.0 mi South 9.2 mph - N/A   Mostly Cloudy
8:51 PM 75.9 °F - 68.0 °F 76% 29.91 in 10.0 mi South 4.6 mph - N/A   Mostly Cloudy
9:51 PM 73.9 °F - 66.9 °F 79% 29.91 in 10.0 mi South 8.1 mph - N/A   Mostly Cloudy
10:51 PM 75.0 °F - 68.0 °F 79% 29.93 in 10.0 mi South 6.9 mph - N/A   Mostly Cloudy
11:51 PM 75.0 °F - 68.0 °F 79% 29.93 in 10.0 mi South 9.2 mph - N/A   Mostly Cloudy